Theta_e
305 304 304 304 304 304 305 306 307 308 309 311 313 315 316 316 317 316 312 313 313 313 313 311 313 312 315 317 317 315 315 315 322 324 322 321 318 316 319 318 319 323 321 321 321 318 319
304 304 304 304 304 305 303 304 305 306 307 309 312 313 315 315 317 315 314 311 313 313 312 310 312 313 312 310 310 311 315 315 322 322 322 321 320 316 317 318 318 317 318 318 317 318 318
303 304 303 303 304 303 303 303 304 304 305 307 309 311 313 315 315 316 314 311 311 312 311 310 311 312 311 310 309 311 311 313 318 321 321 321 319 319 319 320 317 317 320 318 318 318 319
302 302 302 302 302 302 302 302 303 304 305 305 306 309 311 313 314 315 315 314 310 312 311 311 311 311 306 308 309 309 310 311 312 314 317 320 320 319 318 314 316 319 319 320 316 317 317
302 301 302 302 303 303 302 302 303 303 304 306 305 307 308 310 314 315 315 313 312 313 311 311 311 307 308 307 308 308 310 310 311 312 313 315 313 313 315 317 317 319 318 319 317 316 318
303 302 303 302 302 302 302 302 303 303 304 305 306 307 308 310 311 315 315 312 313 310 310 311 311 310 308 310 309 310 309 310 309 309 310 311 312 315 316 316 316 316 318 316 317 315 315
304 303 302 302 302 301 301 300 301 302 303 304 305 306 307 308 309 314 314 311 309 309 310 310 312 310 309 310 310 310 310 310 309 309 312 310 314 316 316 314 313 314 316 317 317 315 315
303 301 301 301 302 301 301 301 301 302 303 304 304 305 305 307 308 312 311 309 309 308 308 307 309 311 310 310 311 310 310 311 311 312 310 312 314 311 311 313 314 316 317 315 313 312 313
301 302 302 302 301 301 301 301 300 301 302 303 303 304 305 305 308 310 311 310 309 309 307 308 308 310 311 310 312 311 309 309 310 311 311 312 311 310 311 311 312 312 314 314 313 311 311
302 303 302 302 301 301 301 300 301 302 303 302 303 303 303 305 306 311 310 309 309 308 301 306 311 310 311 312 312 311 310 310 310 312 311 311 310 311 311 311 311 313 310 312 312 313 314
302 302 302 301 301 301 301 301 301 301 302 302 302 303 304 305 307 312 311 309 309 306 303 307 311 310 311 311 310 311 310 311 312 311 311 311 312 312 312 312 310 312 310 311 312 314 313
302 301 302 301 301 301 300 301 300 302 301 302 305 305 305 305 306 306 310 309 307 308 305 312 311 313 314 312 313 311 312 311 311 312 311 309 308 310 310 310 310 310 311 313 314 314 318
301 301 301 301 300 300 300 300 299 302 304 302 304 305 307 305 307 307 309 309 309 308 307 313 312 313 313 313 313 314 314 314 315 315 314 314 314 312 310 311 310 312 316 316 317 318 316
301 301 300 300 300 300 300 299 299 302 303 302 304 305 306 306 307 309 309 309 311 308 309 309 310 311 312 312 312 313 314 315 314 314 315 314 311 313 312 312 312 313 313 316 316 314 311
300 299 300 300 300 300 299 299 299 302 303 301 302 305 306 306 307 309 308 311 307 307 310 311 310 311 310 310 311 312 313 313 312 314 316 315 311 309 310 310 311 314 315 312 315 314 317
299 299 299 300 299 299 299 299 299 301 303 302 305 305 306 307 307 309 309 312 307 308 310 309 311 309 311 312 312 313 313 309 311 310 309 310 310 307 309 310 311 313 311 315 315 315 315
298 299 299 299 299 299 299 299 299 301 303 303 304 307 306 306 308 306 311 310 310 309 309 309 311 311 311 312 311 313 310 308 309 308 310 310 310 308 311 311 311 314 313 315 313 315 315
299 299 299 299 299 299 299 298 299 301 303 303 305 306 305 308 305 303 311 311 312 311 310 311 311 312 311 311 313 312 311 307 306 307 311 309 312 312 309 308 309 310 313 313 315 314 314
299 299 299 299 299 299 298 298 299 301 303 304 307 309 307 305 308 310 311 312 312 311 312 312 312 313 312 313 314 313 310 308 307 308 308 309 312 312 308 310 309 312 312 312 314 313 315
299 298 298 299 299 299 298 297 299 301 302 306 306 309 302 307 308 311 311 312 313 311 312 313 313 313 312 314 313 314 313 310 307 308 310 310 311 310 312 312 314 314 312 312 313 315 314
298 298 298 299 299 298 298 297 299 302 302 306 307 308 306 307 309 310 310 311 313 313 312 312 313 313 312 314 313 315 312 310 310 309 311 311 316 312 312 312 313 314 315 314 314 314 315
298 298 298 298 299 298 297 297 299 301 302 305 310 311 307 307 309 310 311 311 313 313 311 313 313 312 312 314 313 313 312 310 311 310 311 312 316 314 315 315 315 316 316 315 314 314 314
298 298 298 298 298 298 297 296 298 300 303 304 304 308 311 309 310 312 311 311 312 312 312 310 312 313 313 313 311 312 310 310 311 313 313 315 314 316 318 317 318 323 321 321 317 314 313
298 298 298 298 298 298 298 296 298 299 302 303 304 306 312 312 311 311 311 312 312 312 314 313 312 313 313 311 311 311 311 311 312 312 312 315 314 315 318 319 326 323 320 318 319 316 314
298 298 297 298 298 298 298 297 297 299 302 302 303 306 312 313 311 312 312 311 312 312 313 313 313 312 312 313 316 316 315 314 314 312 312 312 315 319 322 323 320 318 315 318 321 320 315
297 298 298 298 298 298 298 297 297 298 301 301 303 306 309 313 312 312 313 313 314 314 315 314 312 311 312 315 316 317 319 315 319 320 314 315 315 319 319 323 324 318 314 312 314 319 315
297 298 298 298 298 298 298 297 296 298 301 301 301 305 308 312 311 312 314 315 313 313 314 312 312 312 312 315 317 319 317 315 318 318 320 319 318 319 320 324 317 313 311 311 316 317 311
298 298 298 298 298 297 298 296 296 298 301 300 301 305 306 309 311 310 311 312 312 311 314 311 312 312 313 317 316 319 318 318 317 315 317 319 321 323 320 320 318 310 311 315 311 308 309
297 297 298 297 297 297 296 295 296 298 300 300 301 301 305 311 310 311 311 310 311 310 311 311 313 313 315 316 313 317 317 316 312 316 312 317 315 317 315 315 311 310 311 309 306 307 306
Wind_Speed
25 26 26 27 27 27 27 27 26 27 26 25 26 21 19 20 18 15 11 9 8 6 4 3 2 0 4 3 5 2 1 4 6 17 14 7 3 3 4 2 2 3 3 3 4 5 5
25 26 27 28 28 28 27 29 27 27 26 26 25 25 20 19 22 17 13 10 9 6 5 3 2 3 5 2 3 5 6 4 8 16 10 6 6 3 3 2 3 2 2 6 6 8 6
27 27 29 29 28 29 28 29 29 28 26 26 26 24 26 19 20 20 16 12 10 8 6 3 3 4 1 8 3 2 4 3 6 9 5 7 6 4 3 1 2 2 4 6 8 7 8
26 28 28 29 29 29 30 30 28 29 28 26 25 25 24 18 17 22 18 15 12 10 7 5 4 4 5 2 4 9 4 4 6 8 9 9 8 2 1 1 1 3 2 3 3 2 6
25 27 26 29 29 29 30 29 29 28 29 25 24 25 24 23 17 22 20 17 13 12 8 7 3 3 6 1 3 5 10 6 7 5 5 8 7 4 3 2 2 4 4 6 5 2 4
25 26 27 27 28 31 30 30 29 29 29 28 25 21 23 21 19 19 23 18 13 11 6 3 1 2 3 2 4 4 10 9 4 6 4 3 2 4 4 5 6 4 4 4 6 1 4
27 29 30 28 27 28 29 32 30 28 28 28 25 22 21 20 20 16 27 19 5 2 3 7 3 2 1 3 6 4 7 7 4 4 5 2 4 9 13 7 4 1 3 10 7 6 11
27 30 29 29 30 31 31 31 32 30 28 27 23 22 19 21 21 21 39 5 10 9 4 10 3 3 2 2 3 2 12 5 4 4 5 2 9 8 3 4 6 9 14 16 15 14 11
28 29 30 31 31 32 31 32 31 29 27 28 23 23 21 22 23 23 35 18 23 12 4 2 5 7 3 4 1 6 8 4 4 5 7 6 3 5 9 4 6 7 11 10 13 10 13
27 29 31 32 31 31 31 32 32 28 29 29 26 29 26 22 16 15 22 22 21 11 4 4 4 5 7 4 4 8 13 5 3 10 5 5 5 4 4 4 9 13 8 12 12 7 6
28 30 30 31 31 31 31 32 34 29 30 31 40 37 29 19 14 8 16 28 20 4 2 3 4 5 7 8 5 0 7 3 7 6 5 4 4 4 11 13 9 6 5 8 8 8 11
29 30 31 30 31 31 31 32 32 31 37 37 38 25 21 14 20 18 40 35 9 4 6 6 4 6 8 6 5 4 5 1 2 3 5 6 2 5 7 7 13 2 3 6 4 7 9
30 31 31 29 30 30 30 33 32 34 36 38 32 17 13 15 7 18 41 12 4 4 2 8 5 7 8 6 5 6 7 9 5 3 5 5 16 8 4 3 4 11 4 2 4 6 8
30 30 29 29 30 28 30 32 31 36 37 39 30 9 9 17 15 31 27 4 4 5 4 5 6 9 5 6 4 5 6 7 11 3 1 4 5 11 10 15 5 13 11 5 6 5 5
31 31 31 30 29 28 29 32 32 37 37 31 35 9 5 12 16 26 9 3 6 6 8 10 11 6 4 5 3 6 7 5 7 13 6 5 5 1 4 4 10 5 10 8 8 13 10
31 30 31 30 29 28 29 30 31 37 38 34 11 5 5 10 22 10 4 4 2 4 14 9 5 5 8 9 7 8 7 3 4 10 6 1 4 4 2 3 9 8 2 4 5 5 9
31 31 31 29 29 28 29 29 31 35 37 32 3 1 6 15 24 3 2 3 3 4 7 4 4 5 5 6 7 5 3 3 5 4 13 4 3 1 4 10 11 8 8 7 3 5 6
30 31 30 29 29 28 28 29 30 35 36 16 5 1 6 35 4 2 4 5 4 3 6 4 4 5 4 6 6 6 7 4 6 8 9 8 3 5 12 9 15 16 12 17 8 10 6
30 30 30 29 28 27 28 30 31 35 32 24 2 2 12 13 3 2 2 4 4 3 2 2 3 3 3 6 4 7 3 3 9 9 9 7 4 4 8 2 3 10 19 20 17 9 16
29 29 30 29 28 26 28 28 32 37 41 18 0 2 3 2 2 4 5 3 4 3 3 3 4 4 3 4 6 2 4 3 10 8 9 10 5 7 10 14 1 7 18 19 20 10 15
27 29 30 29 26 26 28 27 31 36 42 7 1 2 3 4 4 3 4 3 5 4 2 3 2 6 5 3 5 7 7 3 4 9 6 8 6 11 22 24 24 26 27 21 22 28 14
27 28 29 29 26 25 27 27 29 34 37 6 1 2 1 4 8 8 4 6 8 4 6 3 3 6 8 7 6 6 6 5 5 4 7 4 4 4 20 22 22 21 25 21 20 23 19
27 26 28 28 25 24 25 26 27 30 32 4 6 4 2 10 7 6 6 7 6 4 5 5 7 5 8 12 13 12 3 1 2 4 9 4 3 3 11 11 20 6 8 7 7 13 15
27 26 26 26 24 24 23 25 24 27 28 15 5 3 1 3 8 7 7 4 9 12 3 1 6 6 3 1 6 8 8 11 11 12 9 6 2 3 7 9 4 5 4 8 3 12 15
27 26 24 24 23 23 23 25 24 26 30 24 11 3 2 3 6 8 8 7 2 3 11 8 5 2 4 1 2 1 3 2 8 15 13 14 7 4 4 6 10 2 3 5 2 3 15
26 24 23 23 21 22 24 24 24 26 29 28 13 2 3 1 6 5 5 7 4 4 2 4 1 5 3 2 2 3 4 5 2 3 1 9 11 3 3 4 4 4 7 4 4 8 2
24 24 22 21 20 20 21 22 22 24 28 28 10 7 4 1 1 3 3 5 4 3 1 2 2 2 5 4 3 2 3 3 2 2 4 3 3 7 6 4 7 4 9 1 5 3 4
24 22 21 20 17 18 18 21 21 21 26 24 15 8 6 1 2 1 2 4 3 3 3 2 1 3 4 5 4 3 3 4 2 3 4 5 4 3 2 2 6 2 4 4 3 5 3
22 21 19 16 16 17 19 19 18 20 21 20 7 20 17 1 2 2 3 1 4 6 4 4 2 1 3 3 2 2 2 1 3 3 1 2 5 3 6 5 4 3 4 2 2 4 3
Wind_Direction
358 356 354 351 347 344 341 340 337 337 336 332 329 322 286 264 240 237 232 231 245 249 269 280 282 293 131 174 253 214 34 44 182 181 172 149 135 144 168 170 123 201 261 270 293 309 270
355 353 351 349 345 344 339 336 335 334 332 328 326 328 308 273 246 239 229 217 230 233 239 263 250 180 119 189 232 264 241 51 122 179 166 159 176 165 144 184 167 189 253 276 285 268 258
352 351 348 347 345 340 340 335 332 331 327 326 325 322 326 281 256 236 222 209 217 218 218 203 226 171 119 235 168 143 193 128 94 159 145 192 128 136 146 159 200 224 290 298 245 236 240
351 350 348 346 344 341 339 333 327 328 326 320 317 321 323 308 265 235 217 202 204 203 197 180 194 179 241 215 211 232 206 141 120 115 113 165 181 131 169 297 256 241 210 275 279 242 246
348 346 344 339 340 338 338 332 333 326 320 318 315 312 312 311 288 238 219 198 193 191 178 174 174 166 264 221 202 215 192 145 137 130 127 131 135 142 119 202 310 209 251 210 288 159 296
343 340 337 336 336 335 334 332 328 325 324 324 319 307 316 307 297 247 212 180 159 154 162 157 225 285 259 135 137 131 173 156 117 116 78 97 111 153 176 180 218 199 231 235 234 346 333
335 338 334 332 333 332 328 327 324 321 322 319 317 313 307 307 295 262 173 138 116 97 217 193 180 230 76 86 126 101 142 108 85 95 158 171 190 204 205 200 235 142 249 265 282 297 315
333 334 336 334 332 329 329 327 325 322 319 323 319 315 317 312 289 277 167 186 180 160 185 238 226 281 279 45 117 93 155 131 140 164 133 121 238 228 194 202 231 255 266 267 276 268 266
333 333 332 332 329 328 329 327 323 318 318 323 316 317 307 309 306 280 173 178 158 135 97 220 199 207 198 140 224 181 159 132 133 146 191 183 200 183 192 196 221 233 246 262 260 290 268
329 330 330 330 329 326 327 326 324 322 323 320 310 305 298 297 295 235 183 162 152 147 80 220 194 229 169 121 262 187 177 140 156 189 169 238 236 185 169 200 199 254 208 238 256 273 272
330 330 330 330 330 327 328 326 325 322 324 315 310 292 283 265 286 191 167 152 155 94 53 156 150 160 154 170 146 60 172 131 163 175 153 226 193 165 220 234 178 234 181 212 232 243 281
329 329 330 330 330 328 328 327 326 324 319 317 313 292 266 240 242 251 160 151 140 82 236 157 129 178 154 190 165 125 164 239 105 186 226 218 187 172 202 214 196 178 282 282 236 240 245
330 330 331 331 331 329 328 331 326 325 325 332 320 298 230 193 203 229 157 128 124 158 170 150 163 167 173 165 171 160 173 187 174 171 213 226 231 196 176 189 188 180 175 246 233 213 247
332 332 336 333 332 330 329 332 326 328 333 338 335 313 207 196 209 170 149 126 124 156 158 128 121 136 172 137 204 173 156 194 212 166 164 212 305 182 185 218 190 186 201 201 240 221 259
331 330 334 333 334 331 332 332 328 330 337 341 333 323 188 205 191 169 140 117 175 180 147 132 123 143 170 206 190 188 206 208 198 183 202 193 253 264 219 174 206 169 217 237 270 267 264
334 332 335 335 335 332 334 332 330 331 336 336 301 291 161 175 175 156 137 127 142 124 116 132 129 173 176 193 174 182 186 221 202 181 171 170 284 218 336 136 247 213 129 183 193 249 251
337 336 337 339 335 335 336 335 332 334 339 344 116 190 161 167 149 131 190 135 108 95 114 134 125 144 157 154 167 185 227 264 207 173 179 151 175 297 142 206 198 191 222 214 244 231 259
333 335 339 341 337 339 338 339 335 336 339 352 289 123 173 151 103 164 159 145 115 112 61 98 98 99 138 147 179 193 221 232 169 141 176 196 181 247 231 211 209 212 227 216 232 226 218
337 338 341 342 339 340 343 344 337 337 340 323 219 157 146 137 125 160 188 94 107 104 115 103 95 82 128 164 193 198 195 224 166 165 168 167 209 293 303 353 200 220 227 225 233 252 230
341 342 342 343 343 342 348 345 340 342 339 355 87 97 20 140 312 140 142 108 93 37 100 88 100 93 114 213 204 188 224 270 191 197 174 171 204 210 246 257 119 236 234 228 222 237 246
345 345 344 343 345 346 351 347 346 347 347 359 64 72 151 157 202 155 76 104 121 139 85 126 144 192 166 236 215 224 209 258 172 203 189 175 254 242 258 266 274 265 262 246 222 229 233
346 345 343 344 346 349 352 349 348 350 355 343 122 161 219 143 145 174 150 188 171 121 158 182 206 185 213 232 224 193 165 192 211 118 180 207 263 266 276 268 263 274 273 265 234 229 238
344 342 342 344 345 349 354 349 348 352 357 331 324 295 174 165 156 164 191 163 181 111 211 174 191 225 234 242 240 259 297 287 256 164 184 217 257 287 279 331 307 274 290 276 225 192 215
343 342 339 341 343 345 351 352 347 348 354 343 306 274 194 156 173 186 157 154 169 190 153 226 190 192 190 220 246 258 244 250 249 246 220 237 224 242 286 312 299 292 324 325 250 185 208
342 343 340 341 342 344 345 350 346 346 353 352 309 282 305 125 172 179 155 185 156 249 223 231 193 214 105 360 271 297 210 255 233 232 228 213 214 268 286 311 279 242 344 317 336 244 204
342 340 340 339 341 340 344 349 346 343 349 349 344 326 297 81 203 135 151 169 186 198 170 209 108 134 133 213 243 225 225 206 245 178 249 191 209 217 314 289 296 286 317 331 161 33 240
338 337 339 338 341 340 343 347 346 342 348 349 303 329 309 256 39 115 160 174 152 121 180 132 139 174 177 180 215 248 256 186 229 224 157 156 197 227 245 274 286 279 306 278 53 303 318
339 337 337 340 343 343 344 344 344 342 346 353 306 358 323 341 343 13 161 132 117 161 153 145 161 196 182 183 194 210 222 212 172 222 186 177 190 210 197 270 290 25 356 46 258 304 296
344 343 341 346 343 344 342 341 339 337 345 353 322 325 343 296 255 279 273 299 207 177 139 165 241 199 220 191 212 199 240 191 154 275 1 235 198 197 181 224 265 306 243 309 323 253 312